FW8782 Weather Reports


Display with metric or nautical units.
time (UTC)temp
F
wind
direction
speed
MPH
gust
MPH
rain 1hr
in
rain 24hr
in
rain mn
in
humidity
%
barometer
mb
20260504081536 56 0 0.0 0.0 0.00 0.00 0.00 80 1009.5
20260504081015 56 0 0.0 0.0 0.00 0.00 0.00 80 1009.5
20260504080515 56 0 0.0 0.0 0.00 0.00 0.00 79 1009.5
20260504050515 64 0 0.0 0.0 0.00 0.00 0.00 68 1009.5
20260504045515 65 0 0.0 0.0 0.00 0.00 0.00 66 1009.4
20260504045015 65 0 0.0 0.0 0.00 0.00 0.00 65 1009.5
20260504044531 66 0 0.0 0.0 0.00 0.00 0.00 64 1009.5
20260504044015 66 0 0.0 0.0 0.00 0.00 0.00 64 1009.4
20260504043514 67 0 0.0 0.0 0.00 0.00 0.00 63 1009.4
20260504043032 67 0 0.0 0.0 0.00 0.00 0.00 62 1009.3
20260504042517 68 0 0.0 0.0 0.00 0.00 0.00 61 1009.3
20260504042015 68 0 0.0 0.0 0.00 0.00 0.00 60 1009.3
20260504041531 68 0 0.0 0.0 0.00 0.00 0.00 60 1009.3
20260504041015 69 0 0.0 0.0 0.00 0.00 0.00 60 1009.2
20260504040515 69 0 0.0 0.0 0.00 0.00 0.00 60 1009.2
20260504040031 70 0 0.0 0.0 0.00 0.00 0.00 58 1009.1
20260504035520 70 0 0.0 0.0 0.00 0.00 0.00 57 1009.1
20260504035014 71 0 0.0 0.0 0.00 0.00 0.00 56 1008.9
20260504034535 71 0 0.0 0.0 0.00 0.00 0.00 56 1009.0
20260504034014 72 0 0.0 0.0 0.00 0.00 0.00 58 1008.9
20260504033514 72 0 0.0 0.0 0.00 0.00 0.00 57 1008.9
20260504033047 73 0 0.0 0.0 0.00 0.00 0.00 56 1009.0
20260504032514 73 0 0.0 0.0 0.00 0.00 0.00 53 1008.8
20260504032014 73 0 0.0 0.0 0.00 0.00 0.00 53 1008.8
20260504031532 74 0 0.0 0.0 0.00 0.00 0.00 52 1008.7
20260504031015 74 0 0.0 0.0 0.00 0.00 0.00 51 1008.7
20260504030515 75 0 0.0 0.0 0.00 0.00 0.00 51 1008.7
20260504030034 75 0 0.0 0.0 0.00 0.00 0.00 50 1008.7
20260504025516 75 0 0.0 0.0 0.00 0.00 0.00 52 1008.7
20260504025019 76 0 0.0 0.0 0.00 0.00 0.00 50 1008.7
20260504024543 76 0 0.0 2.0 0.00 0.00 0.00 47 1008.7
20260504024017 77 0 0.0 2.0 0.00 0.00 0.00 47 1008.7
20260504023515 77 0 0.0 2.0 0.00 0.00 0.00 46 1008.7
20260504023031 78 0 0.0 2.0 0.00 0.00 0.00 48 1008.6
20260504022516 78 0 0.0 2.0 0.00 0.00 0.00 48 1008.6
20260504022017 79 0 0.0 3.0 0.00 0.00 0.00 46 1008.6
20260504021532 79 0 0.0 3.0 0.00 0.00 0.00 47 1008.6
20260504021015 80 0 0.0 0.0 0.00 0.00 0.00 47 1008.6
20260504020515 80 0 0.0 0.0 0.00 0.00 0.00 48 1008.7
20260504020034 81 0 0.0 0.0 0.00 0.00 0.00 45 1008.7
20260504015515 82 0 0.0 4.0 0.00 0.00 0.00 45 1008.7
20260504015016 82 0 0.0 4.0 0.00 0.00 0.00 45 1008.6
20260504014534 83 0 0.0 2.0 0.00 0.00 0.00 45 1008.7
20260504014018 83 0 0.0 2.0 0.00 0.00 0.00 44 1008.6
20260504013515 84 0 0.0 2.0 0.00 0.00 0.00 45 1008.6
20260504013033 84 28 0.0 2.0 0.00 0.00 0.00 42 1008.7
20260504012515 85 0 0.0 2.0 0.00 0.00 0.00 42 1008.7
20260504012015 85 0 0.0 2.0 0.00 0.00 0.00 39 1008.7
20260504011532 85 0 0.0 2.0 0.00 0.00 0.00 39 1008.8
20260504011014 86 65 0.0 2.0 0.00 0.00 0.00 39 1008.8
20260504010517 86 315 0.0 2.0 0.00 0.00 0.00 39 1008.8
20260504010030 86 0 0.0 2.0 0.00 0.00 0.00 37 1008.8
20260504005515 86 90 0.0 2.0 0.00 0.00 0.00 38 1008.8
20260504005015 86 0 0.0 2.0 0.00 0.00 0.00 41 1008.9
20260504004541 87 171 0.0 2.0 0.00 0.00 0.00 37 1008.9
20260504004014 87 0 0.0 2.0 0.00 0.00 0.00 37 1009.0
20260504003516 87 0 0.0 2.0 0.00 0.00 0.00 36 1009.0
20260504003032 87 317 0.0 2.0 0.00 0.00 0.00 37 1009.0
20260504002514 86 0 0.0 2.0 0.00 0.00 0.00 40 1009.1
20260504002014 86 31 0.0 2.0 0.00 0.00 0.00 41 1009.3
20260504001534 87 113 0.0 2.0 0.00 0.00 0.00 41 1009.4
20260504001017 87 102 0.0 2.0 0.00 0.00 0.00 36 1009.4
20260504000517 87 229 1.0 2.0 0.00 0.00 0.00 36 1009.5
20260504000032 87 69 1.0 2.0 0.00 0.00 0.00 38 1009.6
20260503235516 87 209 0.0 2.0 0.00 0.00 0.00 38 1009.5
20260503235016 88 238 0.0 2.0 0.00 0.00 0.00 39 1009.6
20260503234533 88 0 0.0 2.0 0.00 0.00 0.00 39 1009.6
20260503234015 87 0 0.0 2.0 0.00 0.00 0.00 38 1009.6
20260503233514 87 128 0.0 2.0 0.00 0.00 0.00 42 1009.6
20260503233032 87 278 0.0 2.0 0.00 0.00 0.00 36 1009.6
20260503232512 87 94 0.0 3.0 0.00 0.00 0.00 39 1009.7
20260503232012 87 18 0.0 3.0 0.00 0.00 0.00 43 1009.9
20260503231534 87 352 1.0 3.0 0.00 0.00 0.00 39 1010.0
20260503231015 86 31 1.0 3.0 0.00 0.00 0.00 38 1010.0
20260503230516 86 283 1.0 2.0 0.00 0.00 0.00 37 1010.1
20260503230032 86 0 1.0 2.0 0.00 0.00 0.00 42 1010.2
20260503225514 86 0 0.0 4.0 0.00 0.00 0.00 41 1010.2
20260503225015 86 75 1.0 4.0 0.00 0.00 0.00 40 1010.3
20260503224535 86 13 1.0 4.0 0.00 0.00 0.00 41 1010.3
20260503224014 85 331 1.0 5.0 0.00 0.00 0.00 41 1010.4
20260503223513 86 319 2.0 5.0 0.00 0.00 0.00 39 1010.5
20260503223033 86 316 1.0 3.0 0.00 0.00 0.00 39 1010.5
20260503222515 85 135 1.0 2.0 0.00 0.00 0.00 41 1010.5
20260503222015 85 313 1.0 5.0 0.00 0.00 0.00 41 1010.6
20260503221536 85 306 1.0 5.0 0.00 0.00 0.00 40 1010.6
20260503221015 85 47 1.0 3.0 0.00 0.00 0.00 43 1010.7
20260503220514 84 32 1.0 3.0 0.00 0.00 0.00 45 1010.8
20260503220037 84 318 0.0 3.0 0.00 0.00 0.00 43 1010.8
20260503215514 85 351 1.0 3.0 0.00 0.00 0.00 40 1010.9
20260503215013 84 0 0.0 4.0 0.00 0.00 0.00 42 1011.0
20260503214532 84 31 1.0 4.0 0.00 0.00 0.00 44 1011.0
20260503214015 84 336 1.0 6.0 0.00 0.00 0.00 42 1011.1
20260503213514 84 321 0.0 6.0 0.00 0.00 0.00 43 1011.1
20260503213035 83 44 0.0 5.0 0.00 0.00 0.00 47 1011.2
20260503212513 83 56 1.0 5.0 0.00 0.00 0.00 43 1011.2
20260503212013 83 296 2.0 4.0 0.00 0.00 0.00 44 1011.3
20260503211538 83 324 1.0 4.0 0.00 0.00 0.00 48 1011.3
20260503211016 83 320 1.0 4.0 0.00 0.00 0.00 46 1011.4
20260503210514 83 117 0.0 4.0 0.00 0.00 0.00 44 1011.3
20260503210033 82 295 1.0 4.0 0.00 0.00 0.00 45 1011.4
20260503205522 82 321 1.0 3.0 0.00 0.00 0.00 46 1011.4
20260503205014 82 292 1.0 2.0 0.00 0.00 0.00 44 1011.6
20260503204533 82 314 0.0 3.0 0.00 0.00 0.00 45 1011.7
20260503204014 82 0 0.0 3.0 0.00 0.00 0.00 44 1011.7
20260503203515 82 346 0.0 3.0 0.00 0.00 0.00 47 1011.8
20260503203032 81 223 1.0 3.0 0.00 0.00 0.00 45 1011.9
20260503202515 81 315 1.0 4.0 0.00 0.00 0.00 46 1012.0
20260503202014 81 332 1.0 4.0 0.00 0.00 0.00 46 1012.0
20260503201532 81 344 1.0 4.0 0.00 0.00 0.00 47 1012.0
20260503201014 80 339 1.0 4.0 0.00 0.00 0.00 46 1012.0
20260503200514 80 336 0.0 3.0 0.00 0.00 0.00 49 1012.2
20260503200032 80 318 2.0 4.0 0.00 0.00 0.00 45 1012.2
20260503195514 80 81 1.0 5.0 0.00 0.00 0.00 48 1012.3
20260503195017 79 298 1.0 5.0 0.00 0.00 0.00 49 1012.4
20260503194541 79 325 1.0 5.0 0.00 0.00 0.00 48 1012.5
20260503194015 79 317 1.0 5.0 0.00 0.00 0.00 51 1012.6
20260503193516 79 342 1.0 3.0 0.00 0.00 0.00 50 1012.7
20260503193039 78 45 1.0 3.0 0.00 0.00 0.00 51 1012.7
20260503192515 78 350 1.0 5.0 0.00 0.00 0.00 51 1012.8
20260503192018 77 313 1.0 5.0 0.00 0.00 0.00 51 1012.8
20260503191530 77 360 1.0 5.0 0.00 0.00 0.00 52 1012.9
20260503191018 77 39 0.0 5.0 0.00 0.00 0.00 52 1012.9
20260503190515 77 329 1.0 4.0 0.00 0.00 0.00 52 1013.0
20260503190040 76 0 1.0 4.0 0.00 0.00 0.00 52 1013.0
20260503185514 76 352 1.0 4.0 0.00 0.00 0.00 51 1013.0
20260503185016 76 0 1.0 4.0 0.00 0.00 0.00 53 1013.0
20260503184530 76 315 1.0 4.0 0.00 0.00 0.00 54 1013.1
20260503184015 76 0 0.0 6.0 0.00 0.00 0.00 54 1013.1
20260503183515 75 296 0.0 6.0 0.00 0.00 0.00 55 1013.2
20260503183036 75 335 2.0 6.0 0.00 0.00 0.00 53 1013.2
20260503182523 74 47 1.0 6.0 0.00 0.00 0.00 54 1013.3
20260503182016 74 293 1.0 6.0 0.00 0.00 0.00 57 1013.3
20260503181536 73 57 1.0 5.0 0.00 0.00 0.00 56 1013.3
20260503181018 73 344 1.0 6.0 0.00 0.00 0.00 56 1013.4
20260503180514 73 360 1.0 5.0 0.00 0.00 0.00 57 1013.4
20260503180034 72 319 0.0 2.0 0.00 0.00 0.00 58 1013.4
20260503175516 72 319 1.0 2.0 0.00 0.00 0.00 58 1013.5
20260503175013 71 352 0.0 3.0 0.00 0.00 0.00 61 1013.5
20260503174543 70 348 1.0 3.0 0.00 0.00 0.00 59 1013.4
20260503174015 70 342 1.0 4.0 0.00 0.00 0.00 60 1013.5
20260503173515 70 325 1.0 4.0 0.00 0.00 0.00 62 1013.5
20260503173030 69 313 2.0 4.0 0.00 0.00 0.00 62 1013.6
20260503172514 68 346 1.0 4.0 0.00 0.00 0.00 63 1013.6
20260503172015 68 288 1.0 3.0 0.00 0.00 0.00 62 1013.6
20260503171530 68 348 1.0 3.0 0.00 0.00 0.00 62 1013.7
20260503171016 67 348 1.0 6.0 0.00 0.00 0.00 63 1013.6
20260503170515 67 346 0.0 6.0 0.00 0.00 0.00 64 1013.7
20260503151013 54 0 0.0 2.0 0.00 0.00 0.00 86 1014.0
20260503150511 53 0 0.0 2.0 0.00 0.00 0.00 87 1014.0
20260503131015 50 0 0.0 0.0 0.00 0.00 0.00 87 1013.6
20260503130515 50 0 0.0 0.0 0.00 0.00 0.00 87 1013.6
20260503110515 51 0 0.0 0.0 0.00 0.00 0.00 84 1014.0